Temp
70 72 79 80 81 82 82 81 81 82 83 82 83 83 83 83 83 83 82 82 82 83 83 83 83 83 83 83 84 83 83 83 83 83 83 82 82 83 83 83 82 81 82
72 73 80 81 81 82 82 81 81 82 82 83 83 83 83 82 82 83 82 82 82 83 83 83 83 83 83 83 83 83 83 83 83 84 84 83 83 83 82 82 82 81 82
71 72 78 81 82 80 80 82 81 82 82 82 83 82 83 83 83 83 83 83 83 83 84 84 84 84 84 84 84 84 83 83 83 83 83 78 79 83 82 82 82 82 81
73 72 75 79 79 80 80 81 81 82 82 82 83 82 83 83 83 83 83 83 82 83 84 84 84 84 83 83 82 83 83 83 83 83 78 79 82 83 82 82 82 81 81
74 73 75 79 81 81 81 80 79 81 82 82 82 83 83 83 83 83 83 83 83 83 84 84 84 83 83 83 83 83 83 83 83 82 76 76 76 82 82 82 82 81 81
74 75 79 81 81 82 83 82 81 81 82 82 83 83 83 83 84 84 84 84 84 84 83 83 84 84 83 82 82 83 83 83 82 77 75 77 75 82 82 82 82 81 81
72 75 79 81 81 83 82 82 82 82 82 82 82 82 83 83 83 84 84 84 84 84 84 84 83 83 83 83 83 83 84 84 77 75 74 73 74 81 82 82 82 81 81
73 75 77 81 82 82 82 82 82 82 83 83 81 81 83 83 83 83 84 84 84 84 84 83 83 83 83 83 83 84 84 85 81 75 74 72 77 81 82 82 81 81 81
75 74 75 76 80 83 83 83 82 82 82 83 83 82 83 83 84 84 84 84 84 84 84 83 83 83 83 84 84 84 84 83 75 74 77 73 79 81 82 82 81 81 81
73 74 73 74 75 75 77 83 83 83 83 83 83 83 83 83 84 84 83 83 84 84 84 83 83 83 83 83 83 84 84 83 75 74 74 73 79 82 83 82 82 82 82
72 72 73 72 73 73 74 79 82 83 83 83 81 83 79 74 76 79 81 83 84 84 84 84 83 83 83 83 83 84 84 75 75 75 73 77 79 82 83 83 82 82 82
69 71 71 72 72 72 79 74 74 77 74 74 74 74 73 73 74 79 79 83 84 84 84 84 84 84 83 77 76 79 76 76 76 74 73 78 80 82 83 83 83 82 82
72 70 71 71 70 71 73 72 72 72 72 72 72 72 72 74 72 73 72 73 73 79 75 77 77 77 77 77 77 76 77 76 75 75 77 79 81 83 83 84 83 82 83
71 71 71 71 70 71 71 71 71 72 72 71 70 72 71 70 69 70 70 72 72 72 72 73 73 75 76 77 76 75 76 76 75 74 74 77 81 82 83 81 78 80 83
70 71 72 71 70 70 71 70 70 71 72 72 71 71 69 69 70 70 71 71 74 73 72 72 72 74 74 76 77 76 75 77 76 75 72 78 80 82 79 79 73 76 81
71 70 72 71 71 70 70 70 70 71 72 70 70 71 72 70 70 70 70 71 70 70 71 72 72 74 74 76 78 78 77 77 77 76 73 72 79 79 80 80 79 79 81
72 72 72 71 71 70 71 70 70 70 74 71 70 70 72 72 70 69 68 68 69 69 71 71 72 73 74 76 76 77 78 78 79 77 76 73 75 80 80 81 77 77 80
72 69 71 78 72 69 69 70 70 72 72 70 71 72 74 73 71 69 68 68 69 70 71 71 70 72 72 74 73 74 75 76 76 76 76 73 75 74 77 78 77 79 81
72 69 71 72 71 70 70 71 69 72 71 71 72 72 73 74 72 68 67 67 68 69 70 70 70 70 70 73 74 73 74 72 74 76 74 73 72 73 73 77 78 78 81
73 72 73 73 71 71 70 69 69 70 70 72 72 72 73 73 72 68 67 67 68 68 68 70 70 69 69 69 78 74 72 72 69 69 72 74 74 73 72 75 72 73 77
75 73 72 71 70 70 68 67 67 68 69 71 72 74 73 73 72 68 66 67 68 68 69 71 70 69 67 68 68 66 68 69 69 68 70 70 72 73 73 72 71 72 73
75 74 73 73 72 72 71 70 70 69 70 71 72 72 74 74 73 71 68 68 69 68 68 70 70 66 66 67 65 62 62 66 68 70 69 72 70 70 72 73 73 74 73
75 73 74 73 73 72 71 70 70 70 70 70 71 72 72 74 75 72 69 68 69 67 67 68 69 68 66 66 66 66 62 62 61 68 68 68 69 69 70 70 74 75 73
76 76 74 72 72 73 71 70 70 71 69 70 70 72 73 74 73 73 71 69 70 68 67 69 71 68 66 65 65 68 66 64 61 63 68 67 69 70 70 71 72 74 73
78 77 74 72 72 72 71 71 69 69 69 69 70 72 71 72 73 73 72 71 71 70 70 71 72 69 68 66 66 65 65 65 65 63 63 67 69 70 74 73 72 72 72
78 77 75 72 71 71 71 72 71 70 69 68 69 70 70 71 72 73 73 72 71 71 72 73 73 72 70 69 66 66 66 66 65 64 63 64 65 70 72 73 73 71 72
MSLP
1014.87 1014.66 1014.43 1014.46 1014.51 1014.60 1014.54 1014.53 1014.48 1014.52 1014.37 1014.50 1014.45 1014.49 1014.74 1014.94 1015.19 1015.35 1015.34 1015.33 1015.35 1015.60 1015.76 1015.75 1015.94 1016.16 1016.21 1016.27 1016.32 1016.58 1016.72 1016.68 1016.69 1016.67 1016.56 1016.75 1016.89 1016.90 1016.94 1017.09 1017.13 1017.10 1017.13
1014.61 1014.77 1014.72 1014.79 1014.85 1014.74 1014.75 1014.87 1014.69 1014.63 1014.66 1014.61 1014.68 1014.76 1015.00 1015.22 1015.48 1015.56 1015.69 1015.59 1015.75 1015.86 1016.06 1016.19 1016.17 1016.34 1016.55 1016.68 1016.78 1016.88 1016.82 1016.94 1016.95 1016.85 1016.90 1017.05 1017.15 1017.26 1017.39 1017.47 1017.51 1017.43 1017.39
1015.06 1015.04 1014.96 1014.96 1015.04 1015.03 1014.96 1014.90 1014.87 1014.74 1014.80 1014.92 1014.88 1015.09 1015.33 1015.53 1015.59 1015.66 1015.91 1015.98 1016.02 1016.09 1016.26 1016.34 1016.46 1016.62 1016.72 1016.91 1016.99 1017.10 1017.21 1017.24 1017.28 1017.29 1017.36 1017.51 1017.53 1017.56 1017.67 1017.69 1017.68 1017.65 1017.64
1015.13 1015.29 1015.27 1015.21 1015.35 1015.28 1015.40 1015.45 1015.50 1015.08 1015.05 1015.30 1015.28 1015.50 1015.65 1015.80 1015.84 1015.94 1016.09 1016.23 1016.28 1016.36 1016.50 1016.68 1016.75 1016.82 1017.11 1017.23 1017.38 1017.50 1017.50 1017.57 1017.66 1017.68 1017.80 1017.78 1017.70 1017.77 1017.76 1017.78 1017.89 1017.90 1017.84
1015.20 1015.52 1015.41 1015.35 1015.46 1015.61 1015.65 1015.66 1015.77 1015.44 1015.42 1015.51 1015.67 1015.79 1015.88 1015.98 1016.15 1016.21 1016.33 1016.46 1016.54 1016.73 1016.78 1016.98 1017.13 1017.22 1017.29 1017.43 1017.60 1017.73 1017.78 1017.84 1017.75 1017.83 1018.06 1018.07 1017.99 1017.91 1017.92 1017.95 1017.97 1017.95 1017.94
1015.34 1015.46 1015.60 1015.63 1015.51 1015.54 1015.56 1015.53 1015.78 1015.89 1015.62 1015.73 1015.79 1015.97 1016.14 1016.29 1016.27 1016.38 1016.51 1016.71 1016.87 1017.06 1017.21 1017.32 1017.45 1017.48 1017.60 1017.68 1017.85 1017.90 1017.95 1017.81 1017.77 1018.01 1018.26 1018.27 1018.23 1018.08 1018.08 1018.08 1018.14 1018.09 1018.05
1015.53 1015.48 1015.49 1015.59 1015.71 1015.62 1015.62 1015.59 1016.01 1016.04 1016.01 1016.08 1016.28 1016.46 1016.45 1016.60 1016.63 1016.65 1016.74 1016.98 1017.11 1017.32 1017.52 1017.64 1017.71 1017.84 1017.93 1018.02 1018.11 1018.05 1017.88 1017.71 1018.00 1018.33 1018.50 1018.55 1018.44 1018.27 1018.26 1018.24 1018.27 1018.29 1018.13
1015.72 1015.81 1015.85 1015.76 1015.68 1015.76 1015.88 1016.19 1016.33 1016.32 1016.35 1016.43 1016.67 1016.72 1016.77 1016.81 1016.92 1017.07 1017.04 1017.25 1017.27 1017.56 1017.78 1017.82 1018.01 1018.13 1018.22 1018.24 1018.20 1018.15 1017.85 1017.62 1018.11 1018.50 1018.70 1018.67 1018.46 1018.38 1018.39 1018.30 1018.26 1018.23 1018.06
1015.83 1016.09 1016.02 1016.01 1015.90 1015.98 1016.08 1016.35 1016.48 1016.65 1016.72 1016.82 1016.84 1017.00 1017.06 1017.16 1017.22 1017.39 1017.41 1017.49 1017.55 1017.81 1017.95 1017.99 1018.15 1018.25 1018.26 1018.33 1018.29 1018.19 1018.08 1018.14 1018.42 1018.58 1018.69 1018.67 1018.41 1018.38 1018.36 1018.35 1018.16 1018.03 1017.88
1016.18 1016.17 1016.18 1016.14 1016.24 1016.39 1016.47 1016.66 1016.61 1016.77 1016.88 1016.92 1017.09 1017.26 1017.30 1017.30 1017.37 1017.54 1017.76 1017.80 1017.80 1017.97 1018.07 1018.10 1018.14 1018.19 1018.15 1018.17 1018.23 1018.18 1018.08 1018.12 1018.32 1018.47 1018.54 1018.58 1018.44 1018.39 1018.38 1018.32 1018.06 1017.81 1017.64
1016.73 1016.53 1016.35 1016.44 1016.53 1016.74 1016.79 1016.67 1016.79 1016.93 1017.08 1017.12 1017.41 1017.37 1017.54 1017.72 1017.79 1017.77 1017.94 1017.93 1017.99 1018.09 1018.12 1018.11 1018.13 1018.17 1018.12 1018.12 1018.17 1018.15 1018.06 1018.21 1018.25 1018.31 1018.37 1018.44 1018.34 1018.24 1018.17 1018.14 1018.14 1017.96 1017.65
1016.88 1016.66 1016.64 1016.58 1016.86 1016.98 1016.86 1017.00 1017.16 1017.20 1017.46 1017.47 1017.64 1017.78 1017.91 1017.92 1017.88 1018.04 1018.16 1018.01 1018.06 1018.15 1018.17 1018.03 1018.00 1018.09 1018.09 1018.13 1018.01 1017.97 1017.94 1017.88 1017.94 1018.09 1018.25 1018.12 1018.04 1018.20 1018.35 1018.26 1018.13 1018.02 1017.74
1016.74 1016.91 1016.88 1016.98 1017.13 1017.11 1017.06 1017.24 1017.31 1017.57 1017.66 1017.73 1017.89 1018.01 1018.14 1018.01 1018.10 1018.22 1018.20 1018.23 1018.30 1018.24 1018.24 1018.09 1018.13 1018.20 1018.08 1017.97 1017.91 1017.78 1017.62 1017.66 1017.69 1017.96 1018.16 1018.24 1018.53 1018.58 1018.41 1018.27 1018.20 1018.06 1017.61
1016.74 1016.97 1017.05 1017.03 1016.94 1017.14 1017.38 1017.50 1017.76 1017.86 1017.78 1017.95 1018.06 1018.19 1018.13 1018.27 1018.46 1018.52 1018.50 1018.36 1018.37 1018.33 1018.22 1018.13 1018.17 1018.02 1017.70 1017.61 1017.58 1017.56 1017.54 1017.55 1017.52 1017.69 1018.16 1018.71 1018.72 1018.92 1019.24 1019.22 1019.68 1018.93 1018.23
1016.93 1016.99 1017.10 1017.01 1017.18 1017.35 1017.44 1017.53 1017.67 1017.64 1017.78 1017.94 1018.17 1018.16 1018.24 1018.34 1018.38 1018.49 1018.42 1018.33 1018.26 1018.21 1017.93 1017.76 1017.73 1017.52 1017.60 1017.31 1017.09 1017.16 1017.17 1017.24 1017.30 1017.56 1018.03 1018.53 1018.52 1018.87 1018.74 1018.30 1017.86 1018.70 1018.18
1016.86 1017.13 1016.96 1017.25 1017.22 1017.10 1017.49 1017.63 1017.60 1017.54 1017.80 1018.10 1018.13 1018.27 1018.16 1018.23 1018.30 1018.46 1018.44 1018.37 1018.46 1018.12 1017.73 1017.62 1017.53 1017.52 1017.55 1017.07 1016.81 1016.95 1016.89 1017.17 1017.46 1017.78 1018.01 1018.30 1018.37 1018.12 1017.65 1017.20 1017.25 1017.69 1017.76
1016.65 1016.77 1016.92 1017.02 1016.99 1017.20 1017.34 1017.58 1017.70 1017.82 1017.93 1017.97 1018.10 1018.24 1018.22 1018.16 1018.23 1018.42 1018.55 1018.58 1018.51 1018.19 1017.86 1017.62 1017.42 1017.42 1017.20 1017.17 1017.13 1017.03 1016.85 1017.22 1017.38 1017.56 1017.72 1017.93 1017.85 1017.69 1017.28 1016.52 1016.76 1017.06 1017.57
1016.55 1016.73 1016.81 1016.86 1017.01 1017.18 1017.37 1017.53 1017.81 1017.78 1017.65 1017.76 1018.29 1018.37 1018.29 1018.29 1018.11 1018.24 1018.37 1018.64 1018.48 1018.16 1017.83 1017.82 1017.83 1017.67 1017.38 1017.07 1017.58 1017.48 1017.64 1017.52 1017.73 1017.80 1017.80 1017.63 1017.26 1018.00 1018.00 1017.80 1016.51 1016.36 1016.90
1016.08 1016.35 1016.54 1016.70 1017.12 1017.26 1017.52 1017.47 1017.60 1017.58 1017.69 1017.81 1018.11 1018.43 1018.28 1018.32 1018.38 1018.41 1018.46 1018.69 1018.32 1018.25 1018.16 1018.20 1018.20 1017.76 1017.59 1017.53 1017.76 1017.84 1017.95 1018.18 1017.95 1017.93 1017.79 1017.47 1017.14 1017.92 1017.59 1016.64 1016.03 1016.22 1016.67
1015.79 1016.04 1016.45 1016.55 1016.96 1017.36 1017.40 1017.67 1017.98 1017.76 1017.71 1018.00 1017.99 1018.19 1018.03 1018.35 1018.38 1018.41 1018.50 1018.57 1018.51 1018.58 1018.67 1018.45 1018.19 1018.14 1018.14 1018.09 1018.06 1017.99 1018.00 1018.24 1017.84 1017.84 1017.34 1017.06 1016.91 1017.06 1016.62 1015.65 1015.82 1016.36 1016.54
1015.62 1015.94 1016.23 1016.50 1016.87 1017.53 1017.89 1018.04 1018.25 1018.09 1017.85 1018.04 1017.96 1018.00 1017.98 1018.26 1018.32 1018.22 1018.62 1018.70 1018.54 1018.63 1018.80 1018.72 1018.37 1018.50 1018.68 1018.65 1018.88 1018.58 1018.42 1017.85 1017.95 1017.90 1017.38 1017.25 1017.07 1016.78 1016.45 1016.52 1016.52 1016.48 1016.53
1015.13 1015.60 1016.13 1016.47 1016.57 1017.05 1017.21 1017.43 1017.57 1017.77 1017.66 1017.80 1017.85 1018.10 1017.84 1018.06 1018.16 1018.30 1018.42 1018.72 1018.41 1018.65 1018.72 1018.59 1018.59 1019.02 1019.13 1019.03 1019.42 1019.53 1019.32 1018.92 1018.14 1017.92 1018.19 1017.56 1017.04 1016.70 1016.79 1016.69 1016.53 1016.12 1016.29
1015.04 1015.34 1015.85 1016.15 1016.23 1016.51 1017.01 1017.32 1017.50 1017.67 1017.80 1017.99 1017.97 1018.28 1017.97 1017.90 1018.04 1018.10 1018.41 1018.56 1018.32 1018.44 1018.70 1018.53 1018.56 1018.82 1019.17 1019.29 1019.36 1019.34 1019.75 1019.53 1019.12 1018.03 1017.90 1017.73 1017.13 1016.84 1016.80 1017.03 1016.71 1016.36 1016.64
1014.39 1014.89 1015.46 1015.88 1016.16 1016.37 1016.74 1016.91 1017.14 1017.44 1017.87 1017.76 1017.93 1017.94 1018.00 1017.92 1017.98 1018.10 1018.25 1018.50 1018.40 1018.44 1018.56 1018.49 1018.58 1018.56 1018.79 1019.64 1019.52 1019.18 1019.16 1019.45 1019.55 1019.20 1017.78 1017.70 1016.97 1016.95 1017.04 1017.04 1016.68 1016.83 1016.83
1014.14 1014.48 1015.06 1015.58 1015.93 1016.20 1016.38 1016.56 1016.92 1017.37 1017.58 1017.59 1017.62 1017.81 1017.98 1017.87 1017.91 1018.10 1018.22 1018.49 1018.57 1018.52 1018.44 1018.37 1018.27 1018.40 1018.85 1019.18 1019.12 1019.21 1019.41 1019.57 1019.46 1019.80 1019.36 1017.83 1017.10 1017.08 1017.08 1016.97 1016.48 1016.84 1016.83
1013.94 1014.47 1014.81 1015.40 1015.73 1016.03 1016.14 1016.40 1016.57 1017.01 1017.40 1017.66 1017.76 1017.98 1018.08 1018.11 1018.21 1018.14 1018.14 1018.26 1018.29 1018.45 1018.42 1018.19 1018.21 1018.42 1018.71 1018.79 1018.86 1019.05 1019.21 1019.24 1019.36 1019.72 1019.86 1018.97 1018.48 1017.40 1017.10 1016.78 1016.83 1016.78 1016.88
Wind_Speed
4 4 6 7 9 9 11 11 11 8 12 11 12 13 13 13 12 11 10 9 13 14 12 13 13 13 14 14 15 15 15 14 14 13 13 11 10 11 11 11 10 7 10
5 3 7 9 9 11 11 9 10 9 10 12 11 12 12 12 10 11 10 10 11 13 13 12 13 13 14 14 14 13 14 13 13 14 14 11 11 10 9 8 8 7 8
4 3 3 7 7 6 6 9 7 10 10 11 11 13 12 10 11 12 12 11 12 13 13 13 13 13 13 13 13 13 13 12 11 11 11 4 5 9 8 7 7 7 6
5 3 4 6 5 4 7 10 8 9 7 9 10 11 11 9 11 10 12 11 11 11 13 12 12 12 11 12 12 11 9 9 11 11 3 3 5 8 7 7 7 6 5
4 4 4 6 8 7 9 12 7 7 8 9 10 9 9 9 9 9 10 10 11 10 11 11 10 10 10 10 9 8 6 3 3 5 3 3 3 5 7 6 5 5 3
5 5 6 8 7 9 12 12 8 3 8 9 9 9 9 8 9 8 9 10 11 9 9 8 8 8 8 7 6 5 3 3 6 5 4 4 3 6 6 5 4 3 4
5 4 6 11 10 10 10 10 9 5 8 8 7 7 7 8 8 7 8 8 8 6 7 7 5 5 5 4 5 5 7 2 5 4 3 3 3 6 6 5 4 4 5
5 4 5 10 10 10 10 10 8 6 6 7 7 7 6 8 8 9 9 8 7 5 4 5 4 4 4 4 5 6 10 9 6 4 3 3 5 4 4 4 4 6 7
5 4 4 3 8 11 10 9 9 8 7 5 6 7 6 7 8 7 6 6 6 5 5 6 6 5 5 4 4 5 6 7 4 2 3 3 5 4 4 5 6 8 9
4 4 5 3 4 4 5 10 9 8 6 6 5 6 5 5 5 4 4 3 4 3 3 4 5 6 6 5 4 4 4 4 4 3 3 3 6 6 7 8 9 10 10
3 3 4 5 5 3 3 4 7 6 6 6 5 6 5 2 3 3 1 2 2 3 3 3 4 5 6 7 7 5 4 1 3 3 3 6 8 9 10 11 11 11 11
5 5 4 4 5 4 3 3 3 3 3 3 2 3 2 0 1 1 3 4 5 6 7 7 7 7 7 3 3 4 1 3 3 3 3 10 12 11 10 11 11 11 12
7 3 4 4 3 2 3 2 1 1 2 1 2 2 2 0 2 3 2 2 2 4 3 5 4 3 4 3 4 4 5 4 3 3 4 9 10 10 11 12 13 13 13
9 5 5 6 4 4 2 3 2 1 2 2 1 4 2 0 2 2 2 3 2 2 4 3 2 4 5 6 5 5 5 4 2 2 2 6 9 10 16 25 36 34 25
7 5 5 4 4 5 5 3 3 3 2 2 3 3 2 3 2 1 2 3 2 3 3 3 4 3 4 5 4 5 5 5 4 1 0 4 5 8 14 18 17 32 25
6 7 7 6 5 5 4 3 3 2 3 3 2 1 2 2 2 3 2 1 3 1 1 1 3 4 3 3 5 3 2 1 2 2 1 2 8 15 11 7 8 14 17
7 9 9 7 6 5 5 4 3 3 3 4 3 1 3 4 5 5 3 2 1 1 2 3 4 1 3 1 5 4 4 5 2 2 3 4 5 11 9 8 4 1 11
5 9 8 8 6 5 3 3 2 3 3 3 4 3 5 5 5 5 4 4 2 2 3 4 3 3 3 3 4 3 4 5 4 1 1 3 5 2 3 6 10 9 10
9 8 7 6 7 6 4 3 2 4 3 3 4 4 6 4 2 2 3 2 2 2 3 1 1 2 2 3 4 3 4 4 2 1 4 6 4 1 5 2 8 10 13
9 7 7 5 5 5 3 2 1 1 1 2 3 4 6 4 5 3 4 3 3 2 1 3 4 4 3 3 3 2 2 4 0 4 4 4 4 5 4 6 6 5 10
8 7 7 7 6 5 2 2 1 3 2 2 4 6 6 5 5 5 3 3 4 3 3 3 2 4 5 4 2 3 2 4 1 4 4 4 4 4 6 6 4 1 2
13 10 8 9 9 7 4 3 3 2 2 1 2 0 4 5 5 5 4 2 2 2 3 2 3 1 2 3 2 2 4 4 4 1 3 4 5 3 4 5 6 2 1
12 10 11 10 10 8 7 3 2 2 1 2 1 2 4 5 4 3 5 5 3 2 2 1 2 3 3 3 3 3 2 1 3 0 3 4 4 1 3 4 6 3 4
13 10 9 8 7 7 9 5 5 4 3 3 3 3 4 5 4 5 4 4 3 2 3 2 2 2 4 3 1 3 2 3 2 5 1 4 2 4 3 3 3 2 4
13 12 8 8 7 6 7 7 5 4 2 1 1 3 3 3 3 4 4 5 3 3 3 4 3 3 3 3 2 2 0 0 2 1 4 7 2 2 1 4 4 4 4
10 10 9 9 7 7 7 7 7 8 5 3 2 3 3 3 4 6 5 5 4 4 4 2 2 3 2 1 1 2 2 2 1 1 2 3 2 4 3 3 1 4 3
Wind_Direction
207 218 144 156 134 124 108 95 91 86 105 101 101 98 96 96 100 104 103 109 110 110 106 107 102 102 102 106 102 111 115 110 106 108 115 115 110 104 107 113 113 106 119
142 204 142 147 142 129 117 102 98 88 95 100 100 99 96 93 103 105 105 100 105 102 108 103 100 98 106 109 115 117 116 115 108 104 108 120 121 111 114 112 109 110 114
144 217 176 142 119 93 107 93 89 90 87 94 93 97 103 104 106 106 112 114 113 119 118 113 113 115 113 112 114 116 118 116 107 105 102 79 99 112 117 119 122 123 127
168 205 275 206 207 122 107 91 85 87 97 96 94 98 104 105 99 106 109 115 113 106 110 111 112 110 111 114 113 111 115 116 116 111 86 95 112 125 131 137 144 140 140
156 187 227 187 178 121 111 105 114 124 105 97 95 101 112 107 106 100 99 107 104 104 102 106 108 113 111 105 98 89 87 142 207 133 107 108 114 145 160 147 157 166 183
174 186 177 175 157 144 133 115 96 99 107 104 112 107 103 109 109 99 103 97 98 101 98 105 113 113 103 100 95 66 28 338 108 114 127 161 145 169 159 175 194 195 195
170 188 173 167 157 147 136 137 159 155 104 103 114 104 119 98 96 102 117 109 98 93 106 104 103 100 98 80 47 19 348 128 115 114 144 167 191 178 181 182 195 212 221
155 184 150 156 156 151 145 151 140 121 120 116 115 118 111 101 87 89 99 94 93 109 98 86 72 57 46 42 28 12 18 144 129 139 172 199 209 189 193 200 219 239 249
134 129 133 173 163 159 154 151 138 145 131 128 129 112 112 91 82 89 85 104 97 75 60 53 41 27 19 25 32 24 38 106 117 128 207 223 216 213 226 238 244 254 263
126 136 153 163 131 147 156 161 147 150 133 125 124 121 107 94 101 93 54 44 56 41 37 33 18 357 346 0 9 7 33 76 149 180 234 232 222 232 246 252 255 260 268
125 140 152 166 143 159 138 168 153 140 141 131 119 125 75 51 33 14 340 351 354 339 346 353 345 331 333 342 342 338 5 90 174 218 211 235 227 231 245 255 267 275 278
170 184 180 168 160 161 151 97 127 129 89 87 110 91 108 101 292 250 312 308 322 328 326 325 318 320 337 329 309 324 249 229 233 222 227 228 231 238 255 266 274 280 286
179 182 185 158 127 137 119 119 139 104 114 119 150 144 176 351 313 311 340 353 355 330 338 318 333 327 307 270 274 281 280 268 234 229 244 244 251 259 274 288 291 289 285
178 187 183 180 161 126 114 179 160 146 148 161 220 196 121 216 354 337 342 308 310 301 283 287 294 288 279 274 265 248 247 259 244 222 232 306 290 307 345 18 10 337 326
184 187 196 187 185 153 179 155 166 201 192 228 229 223 144 99 119 279 263 249 266 332 316 309 288 278 278 283 272 245 229 233 228 174 65 0 327 56 71 60 6 298 317
181 184 187 190 203 171 159 187 208 211 216 215 230 203 137 150 159 141 113 95 74 34 352 3 6 5 344 314 336 0 264 316 89 102 194 201 128 122 115 116 199 266 312
201 181 188 181 194 185 192 205 191 235 224 207 185 185 234 173 158 145 151 121 100 358 29 36 33 6 79 66 57 21 83 104 86 187 220 174 174 149 149 156 165 274 330
180 191 182 190 173 181 203 228 207 242 236 180 132 196 216 192 170 151 159 126 167 127 70 38 2 40 17 77 100 56 45 67 67 55 241 243 237 20 269 85 82 49 356
178 190 186 190 168 178 182 216 226 230 244 165 171 192 185 197 183 144 104 107 162 82 55 122 5 69 54 72 109 98 94 77 37 346 286 266 290 349 239 139 71 27 344
174 192 184 189 168 162 119 116 45 311 275 155 180 191 167 177 192 149 122 125 146 141 357 245 98 32 43 19 60 84 75 112 295 290 260 303 315 318 294 334 40 4 330
173 175 191 170 171 148 148 146 83 223 210 172 186 203 164 180 173 150 118 141 165 179 157 261 73 71 25 22 34 325 15 310 200 263 255 279 326 331 332 4 342 285 310
183 180 185 182 181 174 155 167 166 177 225 119 165 259 178 200 184 165 159 152 189 120 89 71 81 83 63 13 126 50 360 335 291 181 295 292 258 300 329 313 281 61 266
186 187 185 183 184 170 154 131 97 57 58 102 316 182 241 234 184 165 172 183 209 76 102 187 109 114 129 14 355 132 62 299 337 259 234 252 243 328 296 305 296 65 37
191 189 184 173 177 185 165 153 157 176 170 209 191 188 224 228 182 177 171 185 189 143 220 212 162 147 101 186 300 64 47 120 105 337 300 214 192 234 251 267 310 105 113
188 188 181 166 172 189 167 167 158 172 200 235 192 215 235 241 215 214 212 210 200 197 216 215 159 142 169 150 179 120 25 194 100 106 300 325 20 170 168 235 193 178 149
186 186 175 175 183 193 173 176 173 174 180 188 227 219 197 224 215 220 217 217 198 225 224 216 149 175 192 220 138 165 179 165 132 173 276 292 275 315 18 7 101 147 144